Tracking 27112 objects as of 28-Mar-2023
HD Live streaming from Space Station
objects crossing your sky now

STARLINK-4126

Track STARLINK-4126 now!
10-day predictions
STARLINK-4126 is classified as:


NORAD ID: 52867
Int'l Code: 2022-062AP
Perigee: 545.9 km
Apogee: 547.6 km
Inclination: 53.2 °
Period: 95.4 minutes
Semi major axis: 6917 km
RCS: Unknown
Launch date: June 17, 2022
Source: United States (US)
Launch site: AIR FORCE EASTERN TEST RANGE (AFETR)
Your satellite tracking list
Your tracking list is empty




NASA's NSSDC Master Catalog

Two Line Element Set (TLE):
1 52867U 22062AP  23086.59081933  .00024643  00000-0  15590-2 0  9998
2 52867  53.2144 183.8937 0001177 106.2848 253.8274 15.08887107 43174
Source of the keplerian elements: AFSPC